Location: Glen Waverley
(37.8830°S, 145.1670°E)
Time: 04:09:05
(UTC+10:00)

ISS - Visible Passes

Search period start: 09 April 2020 00:00
Search period end: 19 April 2020 00:00
Orbit: 418 x 423 km, 51.6° (Epoch: 09 April)

Date Brightness Start Highest point End Pass type
(mag) Time Alt. Az. Time Alt. Az. Time Alt. Az.
09 Apr -1.1 05:03:26 12° S 05:05:07 16° SSE 05:07:21 10° ESE visible
10 Apr -0.6 04:18:28 12° SSE 04:18:28 12° SSE 04:19:20 10° SE visible
10 Apr -2.9 05:51:51 10° SW 05:55:14 50° SE 05:58:35 10° ENE visible
11 Apr -2.1 05:06:36 23° SSW 05:08:00 31° SSE 05:11:08 10° E visible
12 Apr -1.0 04:21:49 19° SE 04:21:49 19° SE 04:23:28 10° E visible
12 Apr -3.4 05:54:50 13° WSW 05:57:44 49° NW 06:01:03 10° NNE visible
13 Apr -3.8 05:10:11 67° SW 05:10:36 90° S 05:14:01 10° NE visible
14 Apr -1.1 04:25:39 19° ENE 04:25:39 19° ENE 04:26:46 10° ENE visible
14 Apr -1.8 05:58:40 13° WNW 05:59:55 15° NW 06:02:01 10° NNW visible
15 Apr -1.9 05:14:15 20° N 05:14:15 20° N 05:15:49 10° N visible
18 Apr -2.3 19:30:06 10° NNW 19:32:06 30° N 19:32:06 30° N visible
